Arlington, WA
on Saturday, November 24, 2012

Saturday
Previous Day Next Day
Daily Summary
 ActualAverageRecord
Temperature
Mean Temperature °F / °C °F / °C  
Max Temperature 50°F / 10°C 45°F / 7°C 55°F / 12°C (2004)
Min Temperature 30°F / -1°C 31°F / 0°C 24°F / -4°C (2013)
Degree Days
Heating Degree Days 24    
Moisture
Dew Point 37°F / 3°C   
Average Humidity 89    
Maximum Humidity 100    
Minimum Humidity 71    
Precipitation
Precipitation 0.00 in / 0.00 cm in / cm in / cm ()
Wind
Wind Speed 0 mph / 0 km/h   
Max Wind Speed 6 mph / 10 km/h   
Max Gust Speed mph / km/h   
Visibility 4 miles / 7 kilometers   
Events     
Averages and records for this station are not official NWS values.
Key: T is trace of precipitation, MM is missing value
Source: NWS Daily Summary
Seasonal Weather Averages
Time(PST)TemperatureDew PointHumidity Pressure Visibility Wind DirectionWind SpeedGust SpeedPrecipitationEvents Conditions
12:15 AM 46.4°F / 8.0°C 44.6°F / 7.0°C 93% 30.15 in / 1020.9 hPa 10.0 miles / 16.1 kilometers Calm Calm - N/A   Overcast
12:35 AM 46.4°F / 8.0°C 44.6°F / 7.0°C 93% 30.15 in / 1020.9 hPa 8.0 miles / 12.9 kilometers Calm Calm - N/A   Overcast
12:55 AM 46.4°F / 8.0°C 44.6°F / 7.0°C 93% 30.16 in / 1021.2 hPa 7.0 miles / 11.3 kilometers Calm Calm - N/A   Overcast
1:15 AM 46.4°F / 8.0°C 44.6°F / 7.0°C 93% 30.17 in / 1021.6 hPa 5.0 miles / 8.0 kilometers Calm Calm - N/A   Overcast
1:55 AM 44.6°F / 7.0°C 42.8°F / 6.0°C 93% 30.18 in / 1021.9 hPa 5.0 miles / 8.0 kilometers Calm Calm - N/A   Overcast
2:15 AM 44.6°F / 7.0°C 42.8°F / 6.0°C 93% 30.19 in / 1022.2 hPa 10.0 miles / 16.1 kilometers Calm Calm - N/A   Overcast
2:35 AM 44.6°F / 7.0°C 42.8°F / 6.0°C 93% 30.19 in / 1022.2 hPa 9.0 miles / 14.5 kilometers Calm Calm - N/A   Overcast
2:55 AM 44.6°F / 7.0°C 42.8°F / 6.0°C 93% 30.20 in / 1022.6 hPa 10.0 miles / 16.1 kilometers Calm Calm - N/A   Overcast
3:15 AM 44.6°F / 7.0°C 42.8°F / 6.0°C 93% 30.21 in / 1022.9 hPa 9.0 miles / 14.5 kilometers Calm Calm - N/A   Overcast
3:35 AM 44.6°F / 7.0°C 42.8°F / 6.0°C 93% 30.21 in / 1022.9 hPa 7.0 miles / 11.3 kilometers Calm Calm - N/A   Overcast
3:55 AM 42.8°F / 6.0°C 41.0°F / 5.0°C 93% 30.21 in / 1022.9 hPa 0.8 miles / 1.2 kilometers Calm Calm - N/A   Overcast
4:15 AM 39.2°F / 4.0°C 37.4°F / 3.0°C 93% 30.21 in / 1022.9 hPa 0.5 miles / 0.8 kilometers Calm Calm - N/A   Mostly Cloudy
4:35 AM 37.4°F / 3.0°C 35.6°F / 2.0°C 93% 30.21 in / 1022.9 hPa 0.2 miles / 0.4 kilometers Calm Calm - N/A   Overcast
4:55 AM 37.4°F / 3.0°C 35.6°F / 2.0°C 93% 30.22 in / 1023.2 hPa 0.2 miles / 0.4 kilometers Calm Calm - N/A   Overcast
5:15 AM 37.4°F / 3.0°C 35.6°F / 2.0°C 93% 30.23 in / 1023.6 hPa 0.2 miles / 0.4 kilometers Calm Calm - N/A   Overcast
5:35 AM 39.2°F / 4.0°C 37.4°F / 3.0°C 93% 30.23 in / 1023.6 hPa 0.2 miles / 0.4 kilometers Calm Calm - N/A   Overcast
5:55 AM 39.2°F / 4.0°C 37.4°F / 3.0°C 93% 30.24 in / 1023.9 hPa 0.2 miles / 0.4 kilometers Calm Calm - N/A   Overcast
6:15 AM 39.2°F / 4.0°C 37.4°F / 3.0°C 93% 30.24 in / 1023.9 hPa 0.2 miles / 0.4 kilometers Calm Calm - N/A   Overcast
6:35 AM 37.4°F / 3.0°C 35.6°F / 2.0°C 93% 30.24 in / 1023.9 hPa 0.2 miles / 0.4 kilometers Calm Calm - N/A   Overcast
6:55 AM 37.4°F / 3.0°C 35.6°F / 2.0°C 93% 30.24 in / 1023.9 hPa 0.2 miles / 0.4 kilometers Calm Calm - N/A   Overcast
7:15 AM 35.6°F / 2.0°C 33.8°F / 1.0°C 93% 30.25 in / 1024.3 hPa 0.2 miles / 0.4 kilometers Calm Calm - N/A   Overcast
7:35 AM 35.6°F / 2.0°C 35.6°F / 2.0°C 100% 30.26 in / 1024.6 hPa 0.2 miles / 0.4 kilometers Calm Calm - N/A   Overcast
7:55 AM 37.4°F / 3.0°C 35.6°F / 2.0°C 93% 30.25 in / 1024.3 hPa 0.2 miles / 0.4 kilometers Calm Calm - N/A   Overcast
8:15 AM 35.6°F / 2.0°C 33.8°F / 1.0°C 93% 30.25 in / 1024.3 hPa 0.2 miles / 0.4 kilometers Calm Calm - N/A   Overcast
8:35 AM 37.4°F / 3.0°C 35.6°F / 2.0°C 93% 30.26 in / 1024.6 hPa 0.2 miles / 0.4 kilometers Calm Calm - N/A   Overcast
8:55 AM 39.2°F / 4.0°C 37.4°F / 3.0°C 93% 30.27 in / 1024.9 hPa 0.5 miles / 0.8 kilometers Calm Calm - N/A   Overcast
9:15 AM 39.2°F / 4.0°C 37.4°F / 3.0°C 93% 30.27 in / 1024.9 hPa 0.2 miles / 0.4 kilometers Calm Calm - N/A   Overcast
9:35 AM 41.0°F / 5.0°C 39.2°F / 4.0°C 93% 30.27 in / 1024.9 hPa 0.2 miles / 0.4 kilometers Calm Calm - N/A   Overcast
9:55 AM 41.0°F / 5.0°C 39.2°F / 4.0°C 93% 30.27 in / 1024.9 hPa 1.0 miles / 1.6 kilometers Calm Calm - N/A   Overcast
10:15 AM 42.8°F / 6.0°C 41.0°F / 5.0°C 93% 30.27 in / 1024.9 hPa 9.0 miles / 14.5 kilometers Calm Calm - N/A   Mostly Cloudy
10:35 AM 44.6°F / 7.0°C 39.2°F / 4.0°C 81% 30.27 in / 1024.9 hPa 10.0 miles / 16.1 kilometers Calm Calm - N/A   Overcast
10:55 AM 44.6°F / 7.0°C 39.2°F / 4.0°C 81% 30.27 in / 1024.9 hPa 10.0 miles / 16.1 kilometers Calm Calm - N/A   Mostly Cloudy
11:15 AM 42.8°F / 6.0°C 41.0°F / 5.0°C 93% 30.28 in / 1025.3 hPa 10.0 miles / 16.1 kilometers Calm Calm - N/A   Clear
11:35 AM 44.6°F / 7.0°C 41.0°F / 5.0°C 87% 30.27 in / 1024.9 hPa 10.0 miles / 16.1 kilometers Calm Calm - N/A   Scattered Clouds
11:55 AM 46.4°F / 8.0°C 41.0°F / 5.0°C 81% 30.27 in / 1024.9 hPa 10.0 miles / 16.1 kilometers Calm Calm - N/A   Partly Cloudy
12:15 PM 46.4°F / 8.0°C 42.8°F / 6.0°C 87% 30.27 in / 1024.9 hPa 10.0 miles / 16.1 kilometers Calm Calm - N/A   Scattered Clouds
12:35 PM 46.4°F / 8.0°C 42.8°F / 6.0°C 87% 30.26 in / 1024.6 hPa 10.0 miles / 16.1 kilometers Calm Calm - N/A   Clear
12:55 PM 48.2°F / 9.0°C 42.8°F / 6.0°C 82% 30.26 in / 1024.6 hPa 10.0 miles / 16.1 kilometers Calm Calm - N/A   Clear
1:15 PM 48.2°F / 9.0°C 42.8°F / 6.0°C 82% 30.26 in / 1024.6 hPa 10.0 miles / 16.1 kilometers Calm Calm - N/A   Clear
1:35 PM 48.2°F / 9.0°C 41.0°F / 5.0°C 76% 30.26 in / 1024.6 hPa 10.0 miles / 16.1 kilometers Calm Calm - N/A   Scattered Clouds
1:55 PM 50.0°F / 10.0°C 41.0°F / 5.0°C 71% 30.25 in / 1024.3 hPa 10.0 miles / 16.1 kilometers Calm Calm - N/A   Mostly Cloudy
2:15 PM 48.2°F / 9.0°C 39.2°F / 4.0°C 71% 30.26 in / 1024.6 hPa 10.0 miles / 16.1 kilometers North 5.8 mph / 9.3 km/h - N/A   Scattered Clouds
2:35 PM 46.4°F / 8.0°C 37.4°F / 3.0°C 71% 30.26 in / 1024.6 hPa 10.0 miles / 16.1 kilometers NE 4.6 mph / 7.4 km/h - N/A   Partly Cloudy
2:55 PM 44.6°F / 7.0°C 37.4°F / 3.0°C 76% 30.26 in / 1024.6 hPa 10.0 miles / 16.1 kilometers Calm Calm - N/A   Mostly Cloudy
3:15 PM 44.6°F / 7.0°C 37.4°F / 3.0°C 76% 30.25 in / 1024.3 hPa 10.0 miles / 16.1 kilometers Calm Calm - N/A   Mostly Cloudy
3:35 PM 44.6°F / 7.0°C 39.2°F / 4.0°C 81% 30.25 in / 1024.3 hPa 10.0 miles / 16.1 kilometers Calm Calm - N/A   Mostly Cloudy
3:55 PM 42.8°F / 6.0°C 37.4°F / 3.0°C 81% 30.25 in / 1024.3 hPa 10.0 miles / 16.1 kilometers Calm Calm - N/A   Partly Cloudy
4:15 PM 42.8°F / 6.0°C 37.4°F / 3.0°C 81% 30.25 in / 1024.3 hPa 10.0 miles / 16.1 kilometers Calm Calm - N/A   Clear
4:35 PM 41.0°F / 5.0°C 37.4°F / 3.0°C 87% 30.25 in / 1024.3 hPa 10.0 miles / 16.1 kilometers Calm Calm - N/A   Clear
4:55 PM 39.2°F / 4.0°C 37.4°F / 3.0°C 93% 30.25 in / 1024.3 hPa 4.0 miles / 6.4 kilometers Calm Calm - N/A   Clear
5:15 PM 39.2°F / 4.0°C 37.4°F / 3.0°C 93% 30.25 in / 1024.3 hPa 0.8 miles / 1.2 kilometers Calm Calm - N/A   Unknown
5:35 PM 37.4°F / 3.0°C 35.6°F / 2.0°C 93% 30.25 in / 1024.3 hPa 1.2 miles / 2.0 kilometers Calm Calm - N/A   Clear
5:55 PM 35.6°F / 2.0°C 33.8°F / 1.0°C 93% 30.25 in / 1024.3 hPa 0.5 miles / 0.8 kilometers Calm Calm - N/A   Mostly Cloudy
6:15 PM 37.4°F / 3.0°C 35.6°F / 2.0°C 93% 30.25 in / 1024.3 hPa 1.2 miles / 2.0 kilometers Calm Calm - N/A   Overcast
6:35 PM 35.6°F / 2.0°C 35.6°F / 2.0°C 100% 30.25 in / 1024.3 hPa 0.5 miles / 0.8 kilometers Calm Calm - N/A   Overcast
6:55 PM 33.8°F / 1.0°C 30.2°F / -1.0°C 87% 30.25 in / 1024.3 hPa 0.5 miles / 0.8 kilometers Calm Calm - N/A   Mostly Cloudy
7:15 PM 33.8°F / 1.0°C 32.0°F / 0.0°C 93% 30.25 in / 1024.3 hPa 0.5 miles / 0.8 kilometers Calm Calm - N/A   Mostly Cloudy
7:35 PM 33.8°F / 1.0°C 30.2°F / -1.0°C 87% 30.25 in / 1024.3 hPa 0.2 miles / 0.4 kilometers Calm Calm - N/A   Overcast
7:55 PM 33.8°F / 1.0°C 30.2°F / -1.0°C 87% 30.25 in / 1024.3 hPa 0.2 miles / 0.4 kilometers North 4.6 mph / 7.4 km/h - N/A   Overcast
8:15 PM 32.0°F / 0.0°C 30.2°F / -1.0°C 93% 30.25 in / 1024.3 hPa 0.5 miles / 0.8 kilometers Calm Calm - N/A   Mostly Cloudy
8:35 PM 33.8°F / 1.0°C 30.2°F / -1.0°C 87% 30.26 in / 1024.6 hPa 0.8 miles / 1.2 kilometers Calm Calm - N/A   Overcast
8:55 PM 33.8°F / 1.0°C 32.0°F / 0.0°C 93% 30.27 in / 1024.9 hPa 0.2 miles / 0.4 kilometers Calm Calm - N/A   Overcast
9:15 PM 33.8°F / 1.0°C 30.2°F / -1.0°C 87% 30.27 in / 1024.9 hPa 0.2 miles / 0.4 kilometers Calm Calm - N/A   Overcast
9:35 PM 35.6°F / 2.0°C 33.8°F / 1.0°C 93% 30.27 in / 1024.9 hPa 0.8 miles / 1.2 kilometers Calm Calm - N/A   Overcast
9:55 PM 33.8°F / 1.0°C 32.0°F / 0.0°C 93% 30.28 in / 1025.3 hPa 1.0 miles / 1.6 kilometers Calm Calm - N/A   Overcast
10:15 PM 33.8°F / 1.0°C 32.0°F / 0.0°C 93% 30.28 in / 1025.3 hPa 0.5 miles / 0.8 kilometers Calm Calm - N/A   Overcast
10:35 PM 33.8°F / 1.0°C 32.0°F / 0.0°C 93% 30.28 in / 1025.3 hPa 0.2 miles / 0.4 kilometers Calm Calm - N/A   Overcast
10:55 PM 33.8°F / 1.0°C 30.2°F / -1.0°C 87% 30.28 in / 1025.3 hPa 0.2 miles / 0.4 kilometers Calm Calm - N/A   Overcast
11:15 PM 32.0°F / 0.0°C 30.2°F / -1.0°C 93% 30.29 in / 1025.6 hPa 0.2 miles / 0.4 kilometers Calm Calm - N/A   Overcast
11:35 PM 32.0°F / 0.0°C 30.2°F / -1.0°C 93% 30.29 in / 1025.6 hPa 0.2 miles / 0.4 kilometers Calm Calm - N/A   Overcast
11:55 PM 30.2°F / -1.0°C 28.4°F / -2.0°C 93% 30.29 in / 1025.6 hPa 0.2 miles / 0.4 kilometers Calm Calm - N/A   Overcast
Moon Phase
Nov. 24 Nov. 28 Dec. 06 Dec. 13 Dec. 20
Sunrise:07:29 AM (PST) Moon Rise:02:20 PM (PST)11/24
Sunset:04:21 PM (PST) Moon Set:03:38 AM (PST)11/24

Copyright © 2014 The Weather Underground, Inc.